Regional Weather Roundup
Issued by NWS Lake Charles, LA

Home | Current Version | Previous Version | Text Only | Print | Product List | Glossary On
Versions: 1 2 3 4 5 6 7 8 9 10 11 12 13 14 15 16 17 18 19 20 21 22 23 24 25 26 27 28 29 30 31 32 33 34 35 36 37 38 39 40 41 42 43 44 45 46
000
ASUS44 KLCH 292110
RWRLCH
RWRLCH
REGIONAL WEATHER ROUNDUP
NATIONAL WEATHER SERVICE LAKE CHARLES LA
300 PM CST THU JAN 29 2015

Note: "fair" indicates few or no clouds below 12,000 feet with no
significant weather and/or obstructions to visibility.


ACROSS SOUTHEAST TEXAS

CITY           SKY/WX    TMP DP  RH WIND       PRES   REMARKS
BEAUMONT       SUNNY     77  56  48 W9        30.19F
BEAUMONT CITY    N/A     74  57  54 W8G16     30.19F
ORANGE         CLEAR     75  57  53 SW7       30.20F
JASPER         SUNNY     75  51  42 W6        30.21S
$$

ACROSS CENTRAL LOUISIANA

CITY           SKY/WX    TMP DP  RH WIND       PRES   REMARKS
LEESVILLE      MOSUNNY   75  54  47 W13       30.16F
FULLERTON        N/A     78  53  41 W6        30.14S
ALEXANDRIA INT MOSUNNY   75  53  46 W7        30.14F
ESLER FIELD    SUNNY     75  54  47 W6        30.15F
DERIDDER         N/A     74  55  51 CALM      30.19F
OAKDALE        PTCLDY    75  55  49 SW3       30.18S
OPELOUSAS        N/A     74  56  53 SW9       30.17F
$$

ACROSS SOUTHWEST AND SOUTH CENTRAL LOUISIANA

CITY           SKY/WX    TMP DP  RH WIND       PRES   REMARKS
SULPHUR        CLEAR     76  57  53 SW9       30.19F
LAKE CHARLES   SUNNY     74  57  55 SW10      30.18F
CHENNAULT INT  NOT AVBL
CAMERON PHI    CLEAR     66  61  82 SW8       30.23S
DEQUINCY         N/A     74  56  53 SW6       30.18F
JENNINGS         N/A     74  55  50 SW8       30.18F
LAFAYETTE      SUNNY     74  56  53 SW9       30.19F
NEW IBERIA     SUNNY     76  57  51 SW12      30.19F
ABBEVILLE        N/A     74  58  55 W7        30.19F
PATTERSON      SUNNY     73  57  56 W13       30.21F
SALT POINT       N/A     67  61  81 VRB5      30.20F
$$

SELECTED SITES ACROSS THE REGION

CITY           SKY/WX    TMP DP  RH WIND       PRES   REMARKS
HOUSTON BUSH   PTSUNNY   73  58  59 VRB6      30.20F
HOUSTON HOBBY  MOSUNNY   74  57  55 W7        30.20S
GALVESTON      SUNNY     70  62  76 S13       30.21F
COLLEGE STAT   MOSUNNY   72  55  55 SW6       30.20F
CONROE         MOSUNNY   72  54  53 W9        30.20F
HUNTSVILLE     MOSUNNY   74  54  49 NW8       30.19F
LUFKIN         CLOUDY    74  50  42 W12       30.20R
SHREVEPORT     MOSUNNY   75  44  33 NW15      30.17R
MONROE         MOSUNNY   74  53  48 W10       30.14S
NATCHEZ MS     MOSUNNY   72  54  53 SW13G20   30.16F
BATON ROUGE    SUNNY     78  52  40 SW10      30.17F
N.O. INTL ARPT MOSUNNY   77  54  44 W14       30.18F
SLIDELL        SUNNY     74  55  51 SW10G18   30.18F
$$

MARINE REPORTS

STATION/POSITION TIME  TEMP    WIND        PRES    VSBY  WAVE
                       AIR SEA DIR/SP/G                  HT/PER
                 (UTC) (F)     (DEG/KT/KT) (MB)    (MI)  (FT/S)
BUOY 30 S HIGH I 2100   64 63  180/  6/  6 1022.7F         2/ 4
SEA RIM ST PARK  2100   66     210/  8/ 11 1023.2S
PORT ARTHUR      2100      54  260/  8/ 10 1022.4F
SABINE PASS N    2100   70 56  240/  9/ 14 1022.6S
TEXAS POINT      NOT AVBL
CALCASIEU PASS   2100   63 57  230/  8/  9   N/A
LK CHARLES BEACH 2100   72 58              1022.1F
MARSH ISLAND     2000   69      CALM  /  3   N/A
FRESH WATER LOCK 2100   69 58  240/  6/ 13 1022.8F
AMERADA PASS     2100   69 52  200/  2/  6 1023.1F
$$


USA.gov is the U.S. government's official web portal to all federal, state and local government web resources and services.